SCP
0 0 1 1 1 1 1 1 0 0 0 0 0 0 0 0 0 0 0 0 0 0 0 0 0 0 0 0 0 0 0 0 0 0 0 0 0 0 0 0 0 0 0
1 1 1 1 1 1 1 1 1 0 0 0 0 0 0 0 0 0 0 0 0 0 0 0 0 0 0 0 0 0 0 0 0 0 0 0 0 0 0 0 0 0 0
1 1 1 1 1 1 1 1 1 0 0 0 0 0 0 0 0 0 0 0 0 0 0 0 0 0 0 0 0 0 0 0 0 0 0 0 0 0 0 0 0 0 0
1 1 1 1 1 1 1 1 1 0 0 0 0 0 0 0 0 0 0 0 0 0 0 0 0 0 0 0 0 0 0 0 0 0 0 0 0 0 0 0 0 0 0
1 1 1 1 1 1 1 1 1 1 0 0 0 0 0 0 0 0 0 0 0 0 0 0 0 0 0 0 0 0 0 0 0 0 0 0 0 0 0 0 0 0 0
1 1 1 1 1 1 1 1 1 1 0 0 0 0 0 0 0 0 0 0 0 0 0 0 0 0 0 0 0 0 0 0 0 0 0 0 0 0 0 0 0 0 0
1 1 1 1 1 1 1 1 1 1 0 0 0 0 0 0 0 0 0 0 0 0 0 0 0 0 0 0 0 0 0 0 0 0 0 0 0 0 0 0 0 0 0
1 1 1 1 1 1 1 1 1 1 1 0 0 0 0 0 0 0 0 0 0 0 0 0 0 0 0 0 0 0 0 0 0 0 0 0 0 0 0 0 0 0 0
1 1 1 1 1 1 1 1 1 1 0 0 0 0 0 0 0 0 0 0 0 0 0 0 0 0 0 0 0 0 0 0 0 0 0 0 0 0 0 0 0 0 0
1 1 1 1 1 1 1 1 0 0 0 0 0 0 0 0 0 0 0 0 0 0 0 0 0 0 0 0 0 0 0 0 0 0 0 0 0 0 0 0 0 0 0
1 1 1 1 1 1 0 0 0 0 0 0 0 0 0 0 0 0 0 0 0 0 0 0 0 0 0 0 0 0 0 0 0 0 0 0 0 0 0 0 0 0 0
0 0 1 1 1 0 0 0 0 0 0 0 0 0 0 0 0 0 0 0 0 0 0 0 0 0 0 0 0 0 0 0 0 0 0 0 0 0 0 0 0 0 0
0 0 0 0 0 0 0 0 0 0 0 0 0 0 0 0 0 0 0 0 0 0 0 0 0 0 0 0 0 0 0 0 0 0 0 0 0 0 0 0 0 0 0
0 0 0 0 0 0 0 0 0 0 0 0 0 0 0 0 0 0 0 0 0 0 0 0 0 0 0 0 0 0 0 0 0 0 0 0 0 0 0 0 0 0 0
0 0 0 0 0 0 0 0 0 0 0 0 0 0 0 0 0 0 0 0 0 0 0 0 0 0 0 0 0 0 0 0 0 0 0 0 0 0 0 0 0 0 0
0 0 0 0 0 0 0 0 0 0 0 0 0 0 0 0 0 0 0 0 0 0 0 0 0 0 0 0 0 0 0 0 0 0 0 0 0 0 0 0 0 0 0
0 0 0 0 0 0 0 0 0 0 0 0 0 0 0 0 0 0 0 0 0 0 0 0 0 0 0 0 0 0 0 0 0 0 0 0 0 0 0 0 0 0 0
0 0 0 0 0 0 0 0 0 0 0 0 0 0 0 0 0 0 0 0 0 0 0 0 0 0 0 0 0 0 0 0 0 0 0 0 0 0 0 0 0 0 0
0 0 0 0 0 0 0 0 0 0 0 0 0 0 0 0 0 0 0 0 0 0 0 0 0 0 0 0 0 0 0 0 0 0 0 0 0 0 0 0 0 0 0
0 0 0 0 0 0 0 0 0 0 0 0 0 0 0 0 0 0 0 0 0 0 0 0 0 0 0 0 0 0 0 0 0 0 0 0 0 0 0 0 0 0 0
0 0 0 0 0 0 0 0 0 0 0 0 0 0 0 0 0 0 0 0 0 0 0 0 0 0 0 0 0 0 0 0 0 0 0 0 0 0 0 0 0 0 0
0 0 0 0 0 0 0 0 0 0 0 0 0 0 0 0 0 0 0 0 0 0 0 0 0 -0 0 0 0 0 0 0 0 0 0 0 0 0 0 0 0 0 0
0 0 0 0 0 0 0 -0 0 0 0 0 0 0 0 0 0 0 0 0 0 0 0 0 0 -0 -0 0 0 0 0 0 0 0 0 0 0 0 0 0 0 0 0
0 0 0 0 0 0 0 -0 0 0 0 0 0 0 0 0 0 0 0 0 0 0 0 0 0 0 0 0 0 0 0 0 0 0 0 0 0 0 0 0 0 0 0
0 0 0 0 0 0 0 0 0 0 0 0 0 0 0 0 0 0 0 0 0 0 0 0 0 0 0 0 0 0 0 0 0 0 0 0 0 0 0 0 0 0 0
0 0 0 0 0 0 0 0 0 0 0 0 0 0 0 0 0 0 0 0 0 0 0 0 0 0 0 0 0 0 0 0 0 0 0 0 0 0 0 0 0 0 0
Wind_Speed
5 7 12 12 13 13 14 13 13 12 12 11 12 12 12 11 11 11 10 10 10 9 10 10 10 10 10 9 9 9 9 9 9 8 8 7 7 8 8 9 8 5 9
8 9 13 13 13 13 13 14 13 12 12 12 12 11 11 11 11 10 10 10 9 9 9 9 9 9 9 9 8 8 8 8 7 6 5 5 5 6 7 7 7 5 7
10 9 11 13 13 13 13 14 13 13 12 12 12 11 11 11 10 10 10 9 9 9 9 9 8 8 8 8 8 7 7 6 6 5 4 2 3 5 6 6 6 6 6
9 8 10 13 13 14 13 13 13 13 12 12 11 11 10 10 10 10 9 9 9 9 8 8 7 7 7 7 7 7 7 6 6 5 3 1 1 5 6 6 5 5 5
7 6 10 13 13 14 13 13 13 13 12 12 11 11 10 10 10 10 9 9 8 8 8 7 7 6 6 6 6 6 7 6 6 5 2 2 1 4 5 5 5 5 4
6 5 9 13 13 13 13 12 12 12 12 12 11 10 10 10 10 10 9 8 8 8 7 7 7 6 5 5 5 6 6 6 5 3 2 1 1 3 5 5 5 4 3
7 5 7 12 13 13 13 12 12 12 12 12 11 11 10 10 10 10 9 8 8 7 7 6 6 5 5 5 5 5 5 5 3 2 1 1 0 3 4 4 3 3 3
7 6 7 12 13 13 13 12 12 11 11 11 10 10 10 10 9 9 8 8 7 7 6 5 5 4 4 4 4 5 5 5 4 2 1 1 1 3 4 3 3 3 3
6 6 6 6 9 11 12 11 11 11 10 10 10 9 9 9 8 8 8 7 7 7 6 5 4 4 4 4 4 5 5 6 4 2 1 1 2 4 4 4 3 3 3
6 6 6 5 6 7 8 11 11 10 10 9 9 8 8 8 7 7 6 6 6 6 6 5 4 4 4 4 5 5 6 6 3 2 1 1 3 4 4 4 4 3 3
5 4 5 5 5 6 6 8 8 9 8 8 7 8 7 4 4 4 5 6 6 6 5 5 5 5 5 5 5 5 5 3 3 2 1 3 5 6 6 5 5 5 4
4 4 4 5 5 5 6 5 4 4 4 4 4 4 3 3 3 4 5 6 6 6 5 6 6 5 4 2 3 4 2 3 2 1 2 4 5 6 6 6 6 6 6
5 4 4 5 5 5 5 4 3 3 3 3 4 4 3 3 3 3 2 3 3 4 3 4 4 2 2 2 2 2 2 2 2 1 2 5 6 6 7 7 7 7 7
5 5 4 5 5 4 5 4 3 3 2 3 3 4 3 2 3 2 2 2 2 2 2 2 2 2 2 2 2 2 2 2 2 1 3 6 7 7 7 7 7 7 7
5 4 4 5 5 4 5 4 4 3 3 3 3 3 4 3 3 2 2 2 2 2 2 2 2 3 3 3 3 3 3 3 3 3 3 7 8 8 8 8 8 8 8
5 4 4 5 5 4 4 4 4 3 3 3 3 3 4 3 3 2 2 2 2 2 2 2 2 2 2 2 3 3 3 3 3 3 3 5 9 9 9 9 9 9 9
5 5 5 5 5 4 5 5 4 3 3 3 3 4 4 4 3 3 2 2 2 2 2 2 3 3 3 3 3 3 2 3 3 3 3 3 3 7 9 9 9 9 10
6 5 5 5 5 5 4 5 4 3 4 3 3 3 4 4 4 3 2 2 2 2 2 2 3 3 2 2 2 2 2 2 3 3 3 3 3 3 6 9 9 10 10
6 6 5 6 6 5 5 4 4 4 4 2 3 3 3 4 4 3 2 2 2 3 3 3 3 2 2 2 1 2 2 2 2 3 3 3 3 3 3 6 8 9 9
5 5 5 6 5 5 4 4 4 4 3 3 2 3 3 3 3 3 3 3 3 3 3 3 3 3 2 1 1 2 2 2 2 2 3 3 2 3 3 3 3 5 8
5 4 5 5 4 4 3 3 3 2 2 2 2 3 3 3 3 3 3 3 3 3 2 2 2 3 2 2 2 2 2 2 2 2 2 2 2 2 3 3 2 2 3
5 5 4 5 5 4 3 2 2 2 2 1 2 2 3 3 3 3 3 2 3 2 3 3 3 2 2 3 1 1 1 2 2 1 1 1 1 1 2 2 2 2 2
5 5 5 4 4 4 4 3 4 3 2 2 1 1 2 2 2 3 3 3 2 2 2 2 2 2 1 2 2 1 2 2 1 2 1 1 1 0 0 0 1 1 1
4 4 4 5 4 4 4 4 4 3 2 2 1 1 1 2 2 2 2 3 2 2 2 2 2 1 1 1 1 1 0 2 1 1 2 1 1 1 1 1 0 0 1
4 4 4 4 4 4 4 4 4 3 2 1 1 1 1 1 1 2 2 2 2 1 1 2 1 1 1 1 0 0 1 1 1 1 2 2 2 2 2 1 1 1 0
4 4 4 4 4 4 4 4 4 4 3 3 1 1 0 0 0 0 1 1 1 1 1 1 1 1 1 1 1 1 1 0 0 1 1 2 2 3 2 1 1 1 1
Wind_Direction
166 170 157 150 145 140 136 132 129 124 121 118 116 113 112 109 107 105 103 100 98 98 98 94 93 93 90 86 86 85 82 78 74 70 65 65 74 82 83 80 75 69 77
160 164 155 149 143 140 137 134 130 125 122 120 118 114 114 113 110 107 106 102 98 96 99 95 93 93 90 88 87 84 80 77 71 62 54 54 66 84 86 86 85 80 80
148 156 154 148 141 140 138 135 132 129 126 122 120 118 117 116 113 110 107 104 101 97 95 95 92 92 89 85 84 82 79 74 65 58 57 58 72 89 89 87 85 81 80
144 151 152 145 140 138 136 134 133 132 129 126 123 120 119 118 114 112 108 104 100 97 96 95 92 90 91 87 82 76 69 64 58 53 57 55 71 94 90 86 86 77 74
137 144 150 144 140 136 135 133 133 132 130 128 125 123 120 118 115 113 108 103 99 96 95 94 90 90 89 86 79 69 58 55 50 50 48 51 61 99 94 86 85 80 68
132 136 148 143 141 136 132 131 131 133 131 129 128 125 123 121 117 114 110 104 99 98 97 92 88 87 84 82 73 60 50 48 46 49 52 64 74 104 99 92 85 74 63
130 134 145 141 140 136 132 129 129 132 131 129 127 125 123 120 116 113 111 106 103 101 99 94 85 85 84 76 67 53 44 39 47 41 45 68 109 104 95 89 82 66 49
135 136 139 139 137 135 131 128 125 126 129 127 126 125 123 120 115 112 110 107 105 101 97 92 83 75 75 70 54 42 39 38 43 38 49 71 105 100 90 80 63 39 20
124 127 124 132 137 133 128 123 120 117 118 121 121 120 118 116 115 114 110 107 104 101 95 87 78 65 62 57 46 42 39 40 49 43 72 57 70 81 75 61 48 30 15
120 121 121 117 125 126 123 119 114 111 107 107 109 108 109 108 110 109 104 99 98 95 90 81 69 57 55 52 48 47 47 50 50 45 49 58 71 71 65 50 38 28 17
116 120 124 120 119 121 121 117 109 102 97 95 99 102 99 96 97 98 92 88 86 82 78 72 62 55 51 45 47 52 54 49 47 48 43 61 70 65 61 50 41 36 29
133 130 128 129 126 125 121 110 102 96 90 83 85 88 90 92 87 88 78 76 72 66 61 60 54 49 53 41 39 50 53 48 44 44 42 64 72 66 59 51 44 40 35
143 133 127 129 126 123 120 116 103 93 86 80 81 81 83 79 74 69 67 58 54 57 46 40 38 36 50 49 43 50 55 57 51 39 41 66 71 68 61 52 42 36 31
134 133 122 116 114 117 116 115 109 100 94 86 79 83 87 81 73 74 73 65 54 49 52 48 38 31 44 47 55 59 52 61 60 50 48 64 66 63 58 50 41 35 32
130 128 127 118 112 120 116 116 109 105 101 92 80 76 86 89 85 74 72 67 51 45 56 53 41 42 49 46 51 65 59 59 66 61 50 64 65 62 58 50 44 37 32
127 124 119 117 116 114 115 112 112 108 101 89 79 76 80 87 88 81 72 65 49 42 49 60 54 60 55 55 51 54 62 66 77 77 71 60 63 63 58 53 47 42 36
133 128 115 112 111 119 117 111 107 105 101 92 81 74 76 81 84 81 72 65 51 48 55 54 45 55 59 54 47 44 59 64 82 89 84 75 59 56 57 53 47 41 35
135 127 119 115 105 102 103 105 104 101 97 91 83 76 74 76 81 80 72 60 56 60 59 67 54 47 40 43 37 32 45 61 81 92 87 81 68 56 50 54 52 46 38
134 128 122 109 107 101 103 101 98 94 89 88 84 78 71 69 75 81 71 52 60 63 52 55 53 54 36 29 33 48 47 66 88 94 90 84 77 71 57 53 52 46 38
124 121 124 115 112 107 102 97 87 79 74 72 79 83 79 73 73 76 71 53 60 68 55 55 61 48 37 24 42 46 39 57 77 85 92 84 73 70 65 61 47 38 37
122 126 133 126 128 125 115 111 103 93 80 71 73 81 82 79 80 76 68 57 54 66 65 62 71 56 31 18 57 30 14 38 68 70 78 83 69 66 70 70 63 50 28
143 142 141 140 137 135 127 119 113 120 107 89 71 65 71 74 74 84 81 72 64 67 59 52 56 60 28 22 70 88 17 351 8 41 56 92 78 64 65 66 71 63 45
155 159 154 148 141 134 123 108 97 81 67 61 59 53 56 78 79 85 86 81 73 74 70 56 62 78 64 13 32 124 145 218 306 329 0 42 38 46 15 41 68 53 51
169 163 148 147 143 134 128 131 137 138 149 181 173 154 85 86 91 92 95 89 82 85 84 60 62 76 106 50 6 18 139 166 168 301 320 333 322 275 269 288 317 81 59
166 164 154 146 141 134 133 141 136 130 143 139 121 122 106 74 100 108 109 106 107 104 109 97 80 70 97 134 114 1 28 37 94 166 278 311 316 282 257 246 229 236 263
157 160 155 150 151 145 143 142 148 151 152 141 148 158 164 208 359 111 128 130 132 133 134 130 119 101 108 127 128 155 163 162 149 151 238 278 287 284 278 242 217 226 238